Date String (YYYY-MM-DD hh:mm:ss) UTC,Instrument flags,Ambient pressure (hPa),Sample flow (lpm),Bypass flow (lpm),Sample temperature (°C),Ambient temperature (°C),ASC tube jacket temperature (°C),LED temperature (°C),Box temperature (°C),Sample RH (%),Span deviation,Mass concentration (μg/m³),Mass concentration (μg/m³),Mass concentration (μg/m³)
DateTimeUTC,F1_M11,P_M11,Q1_M11,Q2_M11,T1_M11,T2_M11,T3_M11,T4_M11,T5_M11,U1_M11,ZSPAN_M11,X0_M11,X2_M11,X1_M11
2022-01-26 09:00:00,,0826.6,5.00,0.00,21.9,22.3,00.0,30.9,23.7,07.1,0000.0,0004.23,0003.47,0003.39
2022-01-26 09:01:00,,0826.6,5.01,0.00,22.0,22.9,00.0,30.9,23.9,07.1,0000.0,0004.15,0003.43,0003.35
2022-01-26 09:02:00,,0826.6,5.00,0.00,22.1,22.7,00.0,31.0,23.9,07.1,0000.0,0004.07,0003.39,0003.31
2022-01-26 09:03:00,,0826.5,4.99,0.00,22.0,22.3,00.0,31.0,23.8,07.1,0000.0,0004.02,0003.37,0003.29
2022-01-26 09:04:00,,0826.5,5.01,0.00,22.0,21.9,00.0,30.9,23.6,07.2,0000.0,0003.99,0003.36,0003.28
2022-01-26 09:05:00,,0826.5,4.99,0.00,21.9,21.6,00.0,30.9,23.5,07.3,0000.0,0003.96,0003.35,0003.26
2022-01-26 09:06:00,,0826.5,5.01,0.00,21.8,21.3,00.0,30.9,23.4,07.5,0000.0,0003.91,0003.33,0003.26
2022-01-26 09:07:00,,0826.5,5.00,0.00,21.8,21.2,00.0,30.9,23.3,07.5,0000.0,0003.85,0003.31,0003.24
2022-01-26 09:08:00,,0826.5,5.00,0.00,21.7,21.0,00.0,30.9,23.2,07.6,0000.0,0003.79,0003.29,0003.22
2022-01-26 09:09:00,,0826.5,5.01,0.00,21.7,21.2,00.0,30.8,23.2,07.5,0000.0,0003.79,0003.28,0003.22
2022-01-26 09:10:00,,0826.5,4.99,0.00,21.8,21.9,00.0,30.9,23.5,07.4,0000.0,0003.81,0003.30,0003.24
2022-01-26 09:11:00,,0826.5,5.00,0.00,21.9,22.6,00.0,30.9,23.8,07.3,0000.0,0003.88,0003.33,0003.27
2022-01-26 09:12:00,,0826.5,5.02,0.00,22.1,23.2,00.0,31.0,24.0,07.3,0000.0,0003.96,0003.38,0003.31
2022-01-26 09:13:00,,0826.5,5.00,0.00,22.2,23.0,00.0,31.0,24.1,07.4,0000.0,0004.02,0003.41,0003.35
2022-01-26 09:14:00,,0826.5,5.00,0.00,22.1,22.6,00.0,31.0,23.9,07.4,0000.0,0004.11,0003.46,0003.39
2022-01-26 09:15:00,,0826.5,4.99,0.00,22.1,22.2,00.0,31.0,23.8,07.2,0000.0,0004.16,0003.48,0003.41
2022-01-26 09:16:00,,0826.5,5.02,0.00,22.0,21.8,00.0,31.0,23.5,07.1,0000.0,0004.20,0003.49,0003.43
2022-01-26 09:17:00,,0826.5,5.01,0.00,21.9,21.4,00.0,31.0,23.4,07.3,0000.0,0004.29,0003.51,0003.43
2022-01-26 09:18:00,,0826.4,5.00,0.00,21.8,21.2,00.0,30.9,23.2,07.4,0000.0,0004.30,0003.53,0003.45
2022-01-26 09:19:00,,0826.4,5.00,0.00,21.7,20.9,00.0,30.9,23.1,07.4,0000.0,0004.40,0003.55,0003.46
2022-01-26 09:20:00,,0826.4,4.97,0.00,21.7,21.0,00.0,30.9,23.1,07.5,0000.0,0004.40,0003.57,0003.49
2022-01-26 09:21:00,,0826.4,5.01,0.00,21.8,21.7,00.0,30.9,23.4,07.6,0000.0,0004.43,0003.60,0003.53
2022-01-26 09:22:00,,0826.4,5.00,0.00,21.9,22.5,00.0,30.9,23.7,07.7,0000.0,0004.50,0003.64,0003.56
2022-01-26 09:23:00,,0826.4,4.99,0.00,22.1,23.0,00.0,31.0,24.0,07.7,0000.0,0004.57,0003.68,0003.60
2022-01-26 09:24:00,,0826.3,5.00,0.00,22.1,22.7,00.0,31.0,23.9,07.8,0000.0,0004.68,0003.72,0003.64
2022-01-26 09:25:00,,0826.2,5.00,0.00,22.1,22.3,00.0,31.0,23.8,07.9,0000.0,0004.75,0003.76,0003.67
2022-01-26 09:26:00,,0826.3,5.00,0.00,22.0,21.9,00.0,31.0,23.6,08.0,0000.0,0004.84,0003.81,0003.72
2022-01-26 09:27:00,,0826.2,5.00,0.00,21.9,21.6,00.0,31.0,23.5,08.1,0000.0,0004.94,0003.86,0003.77
2022-01-26 09:28:00,,0826.2,5.00,0.00,21.8,21.3,00.0,30.9,23.4,08.1,0000.0,0005.02,0003.91,0003.82
2022-01-26 09:29:00,,0826.1,5.00,0.00,21.8,21.1,00.0,30.9,23.2,08.2,0000.0,0005.14,0003.95,0003.86
2022-01-26 09:30:00,,0826.1,4.99,0.00,21.7,20.9,00.0,30.9,23.2,08.3,0000.0,0005.80,0004.01,0003.92
2022-01-26 09:31:00,,0826.1,5.00,0.00,21.7,21.2,00.0,30.9,23.3,08.3,0000.0,0006.17,0004.05,0003.97
2022-01-26 09:32:00,,0826.1,5.02,0.00,21.8,22.1,00.0,30.9,23.6,08.3,0000.0,0006.24,0004.09,0004.01
2022-01-26 09:33:00,,0826.1,5.01,0.00,22.0,22.8,00.0,31.0,23.9,08.3,0000.0,0006.27,0004.12,0004.04
2022-01-26 09:34:00,,0826.2,4.98,0.00,22.1,23.0,00.0,31.0,24.0,08.2,0000.0,0006.26,0004.12,0004.05
2022-01-26 09:35:00,,0826.2,5.00,0.00,22.1,22.6,00.0,31.0,23.9,08.1,0000.0,0006.35,0004.13,0004.07
2022-01-26 09:36:00,,0826.2,4.99,0.00,22.0,22.2,00.0,31.0,23.7,08.1,0000.0,0006.44,0004.16,0004.09
2022-01-26 09:37:00,,0826.1,5.00,0.00,22.0,21.8,00.0,31.0,23.6,08.2,0000.0,0006.46,0004.17,0004.11
2022-01-26 09:38:00,,0826.1,5.01,0.00,21.9,21.5,00.0,31.0,23.5,08.3,0000.0,0006.53,0004.21,0004.14
2022-01-26 09:39:00,,0826.1,5.00,0.00,21.8,21.3,00.0,30.9,23.3,08.3,0000.0,0006.54,0004.23,0004.17
2022-01-26 09:40:00,,0826.1,5.00,0.00,21.8,21.1,00.0,30.9,23.2,08.4,0000.0,0006.51,0004.24,0004.20
2022-01-26 09:41:00,,0826.1,4.99,0.00,21.7,21.0,00.0,30.9,23.1,08.4,0000.0,0005.88,0004.26,0004.22
2022-01-26 09:42:00,,0826.1,4.99,0.00,21.7,21.5,00.0,30.9,23.3,08.4,0000.0,0005.65,0004.26,0004.22
2022-01-26 09:43:00,,0826.1,5.01,0.00,21.9,22.3,00.0,30.9,23.7,08.3,0000.0,0005.68,0004.28,0004.23
2022-01-26 09:44:00,,0826.1,5.00,0.00,22.0,22.9,00.0,31.0,24.0,08.3,0000.0,0005.77,0004.30,0004.25
2022-01-26 09:45:00,,0826.0,5.00,0.00,22.1,22.8,00.0,31.0,24.0,08.3,0000.0,0005.85,0004.33,0004.27
2022-01-26 09:46:00,,0826.0,5.00,0.00,22.1,22.4,00.0,31.0,23.9,08.3,0000.0,0005.89,0004.36,0004.29
2022-01-26 09:47:00,,0826.0,5.01,0.00,22.1,22.1,00.0,31.0,23.8,08.3,0000.0,0005.84,0004.36,0004.30
2022-01-26 09:48:00,,0825.9,5.00,0.00,22.0,21.7,00.0,31.0,23.6,08.3,0000.0,0005.89,0004.38,0004.32
2022-01-26 09:49:00,,0825.9,5.00,0.00,21.9,21.4,00.0,31.0,23.5,08.4,0000.0,0005.89,0004.39,0004.33
2022-01-26 09:50:00,,0825.9,5.00,0.00,21.8,21.2,00.0,30.9,23.3,08.4,0000.0,0005.88,0004.39,0004.33
2022-01-26 09:51:00,,0825.9,5.00,0.00,21.8,21.0,00.0,30.9,23.2,08.5,0000.0,0005.92,0004.40,0004.34
2022-01-26 09:52:00,,0825.9,5.00,0.00,21.7,21.1,00.0,30.9,23.2,08.6,0000.0,0005.93,0004.41,0004.35
2022-01-26 09:53:00,,0825.8,5.00,0.00,21.8,21.8,00.0,30.9,23.5,08.5,0000.0,0006.00,0004.43,0004.37
2022-01-26 09:54:00,,0825.8,5.01,0.00,22.0,22.6,00.0,31.0,23.8,08.5,0000.0,0006.02,0004.44,0004.38
2022-01-26 09:55:00,,0825.8,5.01,0.00,22.1,23.0,00.0,31.0,24.0,08.4,0000.0,0006.06,0004.46,0004.39
2022-01-26 09:56:00,,0825.7,5.00,0.00,22.1,22.7,00.0,31.0,24.0,08.4,0000.0,0006.11,0004.47,0004.39
2022-01-26 09:57:00,,0825.7,4.99,0.00,22.1,22.3,00.0,31.0,23.8,08.4,0000.0,0006.06,0004.47,0004.39
2022-01-26 09:58:00,,0825.7,5.00,0.00,22.0,21.9,00.0,31.0,23.7,08.5,0000.0,0006.09,0004.48,0004.40
2022-01-26 09:59:00,,0825.6,5.00,0.00,21.9,21.6,00.0,31.0,23.5,08.5,0000.0,0006.14,0004.49,0004.41
